Dubuque, IA

2:38 AM CDT on October 19, 2017 (GMT -0500)
Dubuque Regional

Weather History for KDBQ - August, 2013

Change the Weather History Date:

Tuesday, August 20, 2013

  Actual Average Record
Temperature  
Mean Temperature 74 °F 70 °F  
Max Temperature 84 °F 80 °F 99 °F (1916)
Min Temperature 63 °F 60 °F 44 °F (1967)
Degree Days  
Heating Degree Days 0 1  
Month to date heating degree days 10 5  
Since 1 June heating degree days 71 53  
Since 1 July heating degree days 32 13  
Cooling Degree Days 9 6  
Month to date cooling degree days 64 125  
Year to date cooling degree days 416 525  
Since 1 June cooling degree days 371 488  
Growing Degree Days 24 (Base 50)    
Moisture  
Dew Point 65 °F    
Average Humidity 78    
Maximum Humidity 100    
Minimum Humidity 55    
Precipitation  
Precipitation 0.00 in 0.14 in 2.36 in (1952)
Month to date precipitation 0.47 2.90  
Year to date precipitation 28.18 24.48  
Snow  
Snow 0.00 in 0.00 in - ()
Month to date snowfall 0.0 0.0  
Since 1 June snowfall 0.0 0.0  
Since 1 July snowfall 0.0 0.0  
Snow Depth 0.00 in    
Sea Level Pressure  
Sea Level Pressure 30.03 in    
Wind  
Wind Speed 10 mph (South)    
Max Wind Speed 20 mph    
Max Gust Speed 23 mph    
Visibility 8 miles    
Events      
T = Trace of Precipitation, MM = Missing Value Source: NWS Daily Summary

Daily Weather History Graph

Daily Weather History Graph

Search for Another Location

Airport or City:

Trip Planner

Search our weather history database for the weather conditions in past years. The results will help you decide how hot, cold, wet, or windy it might be!

Date:

Astronomy

Aug. 20, 2013 Rise Set
Actual Time 6:15 AM CDT 7:55 PM CDT
Civil Twilight 5:45 AM CDT 8:25 PM CDT
Nautical Twilight 5:09 AM CDT 9:01 PM CDT
Astronomical Twilight 4:30 AM CDT 9:40 PM CDT
Moon 7:26 PM CDT (8/20) 5:46 AM CDT (8/20)
Length of Visible Light 14h 40m
Length of Day
13h 40m
Full, 100% of the Moon is Illuminated
Aug 20
Full
Aug 20
Full
Aug 28
Last Quarter
Sep 5
New
Sep 12
First Quarter

Hourly Weather History & Observations

Time (CDT) Temp. Heat Index Dew Point Humidity Pressure Visibility Wind Dir Wind Speed Gust Speed Precip Events Conditions
12:53 AM 64.9 °F - 63.0 °F 93% 30.03 in 8.0 mi South 5.8 mph - N/A   Clear
1:53 AM 66.0 °F - 64.0 °F 93% 30.03 in 6.0 mi South 6.9 mph - N/A   Clear
2:53 AM 64.0 °F - 63.0 °F 96% 30.03 in 6.0 mi SSW 6.9 mph - N/A   Clear
3:53 AM 64.0 °F - 63.0 °F 96% 30.03 in 5.0 mi South 5.8 mph - N/A   Partly Cloudy
4:53 AM 63.0 °F - 62.1 °F 97% 30.04 in 5.0 mi South 6.9 mph - N/A   Clear
5:53 AM 63.0 °F - 63.0 °F 100% 30.05 in 4.0 mi South 5.8 mph - N/A   Clear
6:53 AM 64.9 °F - 64.0 °F 97% 30.06 in 3.0 mi South 6.9 mph - N/A   Overcast
7:53 AM 66.0 °F - 64.9 °F 96% 30.07 in 4.0 mi SSW 6.9 mph - N/A   Partly Cloudy
8:53 AM 69.1 °F - 64.9 °F 87% 30.08 in 5.0 mi South 9.2 mph - N/A   Clear
9:53 AM 75.0 °F - 66.0 °F 73% 30.07 in 10.0 mi South 11.5 mph - N/A   Clear
10:53 AM 79.0 °F - 66.0 °F 64% 30.07 in 10.0 mi SSW 11.5 mph - N/A   Clear
11:53 AM 81.0 °F 83.0 °F 66.0 °F 60% 30.06 in 10.0 mi South 12.7 mph - N/A   Clear
12:53 PM 82.0 °F 83.8 °F 64.9 °F 56% 30.05 in 10.0 mi SSW 15.0 mph - N/A   Partly Cloudy
1:53 PM 82.9 °F 84.6 °F 64.9 °F 54% 30.04 in 10.0 mi South 12.7 mph - N/A   Partly Cloudy
2:53 PM 82.9 °F 84.6 °F 64.9 °F 54% 30.02 in 10.0 mi South 16.1 mph - N/A   Partly Cloudy
3:53 PM 82.9 °F 84.6 °F 64.9 °F 54% 30.01 in 10.0 mi South 15.0 mph - N/A   Partly Cloudy
4:53 PM 82.9 °F 84.6 °F 64.9 °F 54% 30.01 in 10.0 mi South 16.1 mph - N/A   Partly Cloudy
5:53 PM 82.0 °F 83.8 °F 64.9 °F 56% 30.01 in 10.0 mi South 13.8 mph - N/A   Clear
6:53 PM 80.1 °F 81.9 °F 64.9 °F 60% 30.00 in 10.0 mi South 12.7 mph - N/A   Clear
7:53 PM 75.9 °F - 64.9 °F 69% 30.00 in 10.0 mi South 9.2 mph - N/A   Clear
8:53 PM 73.0 °F - 66.0 °F 79% 30.01 in 10.0 mi South 9.2 mph - N/A   Clear
9:53 PM 71.1 °F - 64.9 °F 81% 30.02 in 10.0 mi South 8.1 mph - N/A   Partly Cloudy
10:53 PM 71.1 °F - 64.9 °F 81% 30.02 in 10.0 mi South 10.4 mph - N/A   Clear
11:53 PM 71.1 °F - 66.0 °F 84% 30.01 in 10.0 mi South 10.4 mph - N/A   Clear